Flag for Germany Weather past 2 weeks in Kehl, Baden-Württemberg, Germany

Now
52 °F

Mostly cloudy.


Feels Like: 49 °F
Forecast: 46 / 53 °F
Wind: 9 mph from South

Location: Strasbourg Airport

Current Time: Dec 18, 2014 at 11:48:16 AM

Latest Report: Dec 18, 2014 at 11:30 AM


Visibility: N/A

Pressure: 30.04 "Hg

Humidity: 88%

Dew point: 48 °F

Location of KehlLocation

Historic Weather in Kehl — Graph

°F

Kehl temperature yesterday

Maximum temperature yesterday: 45 °F (at 8:00 PM)
Minimum temperature yesterday: 34 °F (at 2:00 AM)
Average temperature yesterday: 40 °F

Past Weeks' High & Low Weather Summary

 TemperatureHumidityPressure
High54 °F (Dec 15, 1:30 PM)100% (Dec 6, 11:30 AM)30.45 "Hg (Dec 6, 11:30 AM)
Low28 °F (Dec 10, 12:30 AM)44% (Dec 15, 2:30 PM)29.74 "Hg (Dec 12, 5:00 PM)
Average42 °F88%30.05 "Hg
* Reported Dec 3 10:00 AM — Dec 18 10:30 AM, Kehl, Weather by CustomWeather, © 2014

Note: Actual official high and low records may vary slightly from our data, if they occured in-between our weather recording intervals... More about our weather records

Advertising

Kehl weather history for previous 24 hours

 ConditionsComfort  
Time TempWeatherWind HumidityBarometerVisibility
10:30 AM
Dec 18
50 °FBroken clouds.10 mph94%30.04 "HgN/A
10:00 AM50 °FDrizzle. Mostly cloudy.10 mph88%30.04 "HgN/A
9:30 AM48 °FLight rain. Cloudy.10 mph94%30.04 "HgN/A
9:00 AM48 °FMostly cloudy.9 mph94%30.01 "HgN/A
8:30 AM48 °FOvercast.8 mph94%30.01 "HgN/A
8:00 AM48 °FOvercast.12 mph94%30.01 "HgN/A
7:30 AM48 °FOvercast.13 mph94%30.01 "HgN/A
7:00 AM48 °FPassing clouds.13 mph94%30.01 "HgN/A
6:30 AM48 °FOvercast.13 mph87%29.98 "HgN/A
6:00 AM46 °FPassing clouds.12 mph93%30.01 "HgN/A
5:30 AM46 °FMostly cloudy.12 mph93%30.01 "HgN/A
4:30 AM46 °FMostly cloudy.12 mph93%30.01 "HgN/A
4:00 AM46 °FOvercast.9 mph87%30.01 "HgN/A
3:30 AM46 °FOvercast.10 mph87%30.01 "HgN/A
3:00 AM46 °FOvercast.9 mph87%30.01 "HgN/A
2:30 AM46 °FMostly cloudy.7 mph87%30.01 "HgN/A
2:00 AM46 °FMostly cloudy.8 mph87%30.01 "HgN/A
1:30 AM46 °FOvercast.7 mph87%30.01 "HgN/A
1:00 AM45 °FOvercast.7 mph93%30.01 "HgN/A
12:30 AM45 °FMostly cloudy.8 mph93%29.98 "HgN/A
12:00 AM45 °FOvercast.9 mph93%29.98 "HgN/A
11:30 PM
Dec 17
45 °FOvercast.9 mph93%29.98 "HgN/A
11:00 PM45 °FOvercast.6 mph87%29.98 "HgN/A
10:30 PM45 °FMostly cloudy.9 mph87%29.95 "HgN/A
10:00 PM45 °FMostly cloudy.10 mph87%29.95 "HgN/A
9:30 PM45 °FMostly cloudy.10 mph87%29.95 "HgN/A
9:00 PM45 °FOvercast.10 mph87%29.92 "HgN/A
8:30 PM45 °FOvercast.13 mph87%29.92 "HgN/A
8:00 PM45 °FOvercast.10 mph87%29.92 "HgN/A
7:30 PM43 °FOvercast.10 mph93%29.92 "HgN/A
7:00 PM43 °FOvercast.10 mph93%29.89 "HgN/A
6:30 PM43 °FOvercast.10 mph93%29.89 "HgN/A
6:00 PM43 °FOvercast.10 mph87%29.86 "HgN/A
5:30 PM43 °FOvercast.12 mph87%29.86 "HgN/A
5:00 PM43 °FLight rain. Overcast.9 mph87%29.83 "HgN/A
4:30 PM41 °FLight rain. Overcast.12 mph93%29.83 "HgN/A
4:00 PM41 °FLight rain. Mostly cloudy.13 mph93%29.80 "HgN/A
3:30 PM41 °FRain. Mostly cloudy.14 mph93%29.80 "HgN/A
3:00 PM41 °FRain. Mostly cloudy.15 mph93%29.80 "Hg5 mi
2:30 PM41 °FRain. Overcast.16 mph93%29.80 "Hg5 mi
2:00 PM43 °FRain. Mostly cloudy.14 mph81%29.80 "HgN/A
1:30 PM41 °FLight rain. Mostly cloudy.10 mph87%29.83 "HgN/A
1:00 PM41 °FLight rain. More clouds than sun.12 mph81%29.83 "HgN/A
12:30 PM41 °FMostly cloudy.12 mph81%29.86 "HgN/A
12:00 PM41 °FCloudy.13 mph81%29.86 "HgN/A
11:30 AM41 °FOvercast.12 mph81%29.89 "HgN/A
11:00 AM41 °FMostly cloudy.12 mph81%29.92 "HgN/A
Weather by CustomWeather, © 2014

See weather overviewHow to use our weather pages